Regional Weather Roundup
Issued by NWS Midland/Odessa, TX

Home | Current Version | Previous Version | Text Only | Print | Product List | Glossary On
Versions: 1 2 3 4 5 6 7 8 9 10 11 12 13 14 15 16 17 18 19 20 21 22 23 24 25 26 27 28 29 30 31 32 33 34 35 36 37 38 39 40 41 42 43 44 45 46 47 48 49 50
000
ASUS44 KMAF 231010
RWRMAF
MIDLAND AREA WEATHER ROUNDUP
NATIONAL WEATHER SERVICE MIDLAND TX
500 AM CDT WED JUL 23 2014

...IN SOUTHWEST TEXAS AND SOUTHEAST NEW MEXICO...

CITY           SKY/WX    TMP DP  RH WIND       PRES   REMARKS
ALPINE         MOCLDY    69  59  72 CALM      30.31F
ANDREWS        NOT AVBL
ARTESIA        PTCLDY    77  57  50 E3        30.21S
BIG SPRING     PTCLDY    74  60  61 CALM      30.19R
CARLSBAD       PTCLDY    77  55  46 CALM      30.18R
DRYDEN           N/A     80  61  52 NE5       30.10F
FORT STOCKTON  PTCLDY    75  61  61 S8        30.16S
GUAD PASS      PTCLDY    73  55  53 NE9         N/A
HOBBS          MOCLDY    72  57  60 NE5       30.24R
MARFA          MOCLDY    66  57  72 N7        30.29S
MIDLAND AIRPK  MOCLDY    78  64  60 E3        30.18S
MIDLAND INTL   MOCLDY    76  64  66 SE5       30.17S
ODESSA         MOCLDY    77  62  59 SE7       30.18S
PECOS          PTCLDY    74  58  57 E6        30.13S
PRESIDIO       FAIR      83  60  46 NE10      30.11F
SEMINOLE       MOCLDY    73  59  62 E5        30.23R
SNYDER         PTCLDY    74  62  67 CALM      30.17S
WINK           PTCLDY    80  61  52 E8        30.14S
$$
...OTHER STATIONS IN TEXAS...

CITY           SKY/WX    TMP DP  RH WIND       PRES   REMARKS
ABILENE        CLEAR     76  68  76 SE5       30.12S
AMARILLO       CLEAR     70  64  81 S8        30.27R
AUSTIN         PTCLDY    76  72  87 SW5       30.03S
BROWNSVILLE    CLEAR     77  76  96 S3        30.00F
CORPUS CHRISTI MOCLDY    78  76  93 SE6       30.01S
DALLAS FTW     CLEAR     78  69  73 CALM      30.08S
DEL RIO        PTCLDY    80  68  66 E6        30.03S
EL PASO        LGT RAIN  73  69  87 CALM      30.19F
HOUSTON INT    PTCLDY    77  75  93 CALM      30.02R
LUBBOCK        PTCLDY    72  62  71 E8        30.23R
SAN ANGELO     MOCLDY    75  64  68 SW3       30.11S
SAN ANTONIO    PTCLDY    79  75  87 S5        30.05S
WACO           CLEAR     74  72  93 CALM      30.07R FOG
WICHITA FALLS  NOT AVBL
$$
...OTHER LOCATIONS IN NEW MEXICO...

CITY           SKY/WX    TMP DP  RH WIND       PRES   REMARKS
ALAMAGORDO     MOCLDY    73  59  60 NE6       30.23F
ALBUQUERQUE    CLEAR     71  55  56 NW5       30.35R
CANNON AFB     MOCLDY    69  66  91 E5        30.30R
CLOVIS         NOT AVBL
HOLLOMAN AFB   MOCLDY    73  62  68 NE7       30.21F
ROSWELL        MOCLDY    77  63  61 N3        30.22S
RUIDOSO        MOCLDY    59  55  88 MISG      30.47S
SANTA FE       CLEAR     63  50  62 NE6       30.42S
TRUTH OR CONSE PTCLDY    72  59  63 SW5       30.27S
TUCUMCARI      MOCLDY    73  63  70 CALM      30.28R
$$



USA.gov is the U.S. government's official web portal to all federal, state and local government web resources and services.